Wind_Speed
48 49 51 47 41 36 39 42 36 34 34 36 37 38 39 39 42 47 45 42 39 36 35 34 30 28 29 25 26 28 24 22
51 52 53 48 43 38 48 46 40 36 34 36 36 38 38 40 44 48 42 43 41 38 34 31 26 24 24 22 29 33 26 23
52 51 48 47 46 42 48 48 42 38 34 36 35 38 38 42 45 45 43 45 44 41 34 28 26 24 23 25 29 31 30 22
58 56 50 49 49 44 48 49 45 42 37 38 36 36 39 40 43 43 43 46 44 41 35 29 28 26 24 24 29 32 31 34
52 53 54 51 50 44 46 51 46 44 39 38 35 36 37 39 43 41 41 46 44 38 37 34 30 26 25 27 29 34 36 40
54 54 51 49 45 43 48 47 47 42 41 39 38 37 38 40 44 45 44 49 47 38 37 35 35 31 27 28 31 35 37 40
54 50 52 50 47 44 47 46 46 45 42 39 40 38 40 42 44 46 47 49 50 43 36 34 37 38 34 31 32 37 36 39
45 48 49 50 46 43 45 45 46 47 45 42 41 39 40 43 45 45 47 48 50 45 37 35 39 38 34 31 32 37 36 39
48 47 45 46 46 42 44 43 47 48 48 44 42 43 44 43 43 46 50 46 50 48 38 34 35 36 32 29 32 35 35 41
51 51 50 48 44 44 42 43 48 52 48 47 43 44 44 42 41 44 50 45 50 53 38 34 34 34 31 30 32 34 36 43
42 44 47 53 46 42 42 43 42 47 48 46 46 46 44 43 40 47 50 49 51 54 41 34 34 32 30 32 33 33 37 42
41 41 44 48 45 45 46 44 43 43 46 46 46 47 45 46 44 48 51 50 53 50 41 34 34 33 32 33 32 34 35 40
39 37 41 43 42 46 50 45 41 39 44 47 47 47 47 48 47 48 53 51 54 54 42 35 34 34 31 31 30 36 40 37
38 36 41 41 40 42 44 46 46 46 47 49 43 47 49 50 49 47 51 55 55 54 43 34 33 33 29 31 31 39 42 44
45 41 41 44 42 41 42 43 41 42 47 47 45 49 49 49 47 49 54 54 56 49 41 34 32 34 29 31 33 44 45 43
50 48 47 46 43 44 46 48 48 45 46 48 46 49 47 48 49 54 51 54 55 51 40 34 31 33 30 28 36 47 47 43
54 52 49 45 44 39 42 46 45 45 48 52 52 51 50 54 54 55 53 55 57 52 41 34 31 31 28 25 38 48 46 47
58 54 51 49 46 39 38 48 50 47 51 55 53 52 49 54 56 56 56 58 55 48 40 34 31 30 24 29 38 47 50 50
61 58 55 53 52 51 51 55 57 53 52 55 52 52 50 54 56 57 59 56 53 44 38 34 33 31 22 34 37 36 44 48
65 62 60 60 60 59 59 58 61 59 56 52 55 53 50 53 61 63 57 51 47 40 35 34 32 31 25 32 40 40 43 54
Wind_Direction
281 281 285 288 292 293 295 297 297 302 302 308 308 309 318 318 321 322 318 314 311 308 293 278 260 261 268 258 259 257 261 269
277 275 281 285 286 288 293 291 293 299 300 304 305 310 314 315 321 323 320 318 311 306 294 279 266 262 258 257 249 250 261 263
273 273 272 282 285 285 287 287 289 293 296 299 303 308 314 316 321 324 321 320 313 303 291 277 264 256 245 244 244 250 257 240
270 271 270 279 279 281 283 284 285 291 291 295 301 306 309 314 324 324 324 323 315 304 291 276 267 263 253 253 247 251 243 239
261 267 271 274 270 276 276 280 283 284 290 294 299 304 305 311 325 327 325 325 321 303 291 277 269 263 252 261 255 252 248 246
260 265 268 267 265 271 276 278 282 286 287 291 297 299 299 311 319 327 322 324 322 306 290 278 266 262 261 261 260 257 256 250
258 261 264 262 264 265 268 276 282 283 285 288 293 295 301 307 315 322 324 324 324 318 295 279 267 263 264 260 265 257 252 248
261 260 255 260 260 260 263 271 277 280 284 284 289 292 297 306 311 319 322 323 328 320 302 283 269 266 268 275 268 262 256 241
259 262 262 260 260 257 263 267 274 278 277 280 283 288 295 306 310 317 319 321 325 324 302 284 269 267 275 277 270 259 252 234
254 259 263 261 260 259 264 271 279 276 274 277 280 285 294 303 306 310 318 318 324 324 304 284 272 272 276 281 274 255 239 228
255 257 259 259 257 251 258 271 277 274 273 276 280 286 293 298 300 306 313 316 321 322 308 288 273 271 279 286 271 251 235 224
251 256 257 255 256 258 257 261 274 276 273 274 279 286 289 296 299 304 312 313 316 319 308 289 274 272 279 281 263 246 235 219
247 253 257 253 255 261 263 259 268 275 271 271 275 281 290 292 297 303 310 310 315 319 306 286 272 271 279 278 254 237 220 213
252 249 250 255 257 260 263 261 266 270 271 273 276 281 290 289 293 302 308 309 313 315 303 284 272 273 279 280 246 226 218 213
246 247 250 250 252 257 259 261 263 264 270 274 279 285 284 285 292 304 306 309 312 312 298 281 270 272 279 275 236 219 220 221
245 246 248 250 250 255 260 259 262 266 270 275 279 279 281 288 298 302 305 308 313 312 295 279 270 275 282 264 225 219 222 219
244 243 244 247 250 258 268 272 267 269 271 270 276 277 284 291 296 302 302 308 310 309 293 275 268 277 284 250 217 217 222 222
240 244 243 244 246 241 243 264 268 267 267 269 272 276 282 289 293 297 300 305 306 304 290 269 268 276 283 232 218 217 224 223
239 240 245 245 245 244 238 245 254 262 265 268 274 278 284 289 290 295 302 301 303 297 283 261 265 273 279 221 217 222 227 225
238 240 240 243 248 250 249 250 257 259 268 274 276 280 283 285 288 295 296 295 297 289 272 252 264 272 279 226 221 226 222 223
Height
10773 10774 10772 10772 10773 10772 10770 10771 10771 10771 10770 10769 10767 10766 10764 10761 10756 10750 10744 10739 10734 10730 10728 10727 10729 10731 10733 10734 10735 10735 10738 10740
10763 10766 10765 10764 10766 10766 10763 10763 10765 10765 10764 10763 10761 10760 10758 10755 10750 10744 10737 10732 10726 10724 10723 10722 10723 10725 10727 10729 10729 10730 10733 10736
10753 10755 10756 10756 10758 10758 10756 10755 10757 10758 10758 10757 10755 10754 10751 10749 10744 10738 10732 10726 10720 10717 10716 10717 10716 10718 10720 10723 10724 10726 10728 10731
10743 10743 10747 10749 10750 10751 10748 10748 10749 10751 10752 10750 10750 10747 10745 10743 10739 10732 10726 10720 10715 10710 10709 10710 10711 10712 10714 10716 10719 10720 10724 10725
10733 10734 10737 10739 10741 10743 10741 10740 10741 10743 10744 10743 10742 10741 10738 10736 10733 10727 10721 10715 10709 10704 10702 10703 10704 10705 10709 10710 10712 10712 10716 10718
10724 10725 10727 10729 10733 10734 10732 10732 10734 10734 10735 10735 10733 10733 10730 10729 10726 10722 10716 10710 10704 10698 10695 10695 10696 10698 10702 10703 10704 10705 10706 10709
10712 10715 10715 10718 10722 10724 10724 10724 10725 10725 10727 10727 10726 10725 10723 10721 10719 10715 10711 10704 10697 10691 10688 10687 10688 10690 10693 10695 10695 10695 10697 10700
10700 10702 10705 10707 10710 10715 10715 10715 10716 10717 10718 10719 10717 10717 10716 10714 10711 10708 10703 10699 10691 10685 10681 10679 10679 10681 10683 10684 10685 10684 10687 10691
10691 10689 10694 10696 10700 10704 10706 10707 10707 10708 10709 10710 10710 10709 10709 10706 10702 10701 10698 10693 10686 10680 10675 10671 10671 10672 10674 10674 10675 10676 10677 10683
10679 10680 10682 10684 10690 10693 10696 10696 10698 10698 10701 10700 10701 10701 10700 10697 10695 10692 10690 10685 10681 10675 10669 10665 10663 10664 10666 10666 10665 10666 10669 10675
10670 10672 10673 10671 10679 10683 10686 10687 10688 10689 10691 10692 10691 10692 10692 10689 10687 10684 10682 10677 10672 10667 10661 10658 10657 10657 10658 10657 10656 10658 10661 10667
10661 10664 10664 10664 10670 10673 10675 10678 10680 10680 10681 10683 10683 10683 10683 10681 10678 10675 10672 10669 10665 10660 10655 10650 10649 10650 10651 10649 10648 10650 10653 10660
10651 10656 10655 10658 10663 10663 10663 10669 10671 10670 10673 10674 10676 10675 10675 10671 10670 10667 10664 10660 10657 10651 10647 10644 10642 10643 10642 10642 10641 10643 10647 10654
10644 10648 10648 10647 10652 10653 10655 10659 10662 10660 10660 10661 10666 10666 10666 10661 10661 10659 10656 10652 10648 10643 10638 10635 10634 10634 10634 10633 10632 10635 10640 10646
10627 10632 10636 10638 10639 10644 10646 10648 10650 10650 10649 10651 10656 10654 10654 10650 10651 10649 10646 10642 10639 10633 10629 10627 10625 10625 10626 10624 10624 10629 10633 10640
10613 10618 10621 10625 10629 10633 10635 10638 10639 10638 10638 10639 10643 10644 10640 10638 10639 10639 10637 10633 10628 10624 10620 10618 10617 10617 10616 10615 10618 10622 10629 10636
10598 10604 10609 10615 10621 10624 10625 10626 10629 10628 10628 10629 10633 10634 10630 10626 10627 10629 10627 10623 10619 10615 10611 10609 10608 10609 10609 10608 10611 10617 10623 10629
10584 10591 10597 10603 10609 10615 10620 10619 10616 10620 10621 10621 10622 10623 10620 10615 10615 10617 10615 10612 10609 10605 10602 10601 10600 10600 10601 10601 10605 10611 10616 10621
10572 10578 10583 10590 10593 10600 10603 10604 10602 10607 10610 10611 10611 10610 10611 10605 10604 10604 10603 10600 10598 10596 10593 10593 10592 10592 10592 10596 10600 10605 10609 10613
10556 10563 10569 10576 10580 10582 10587 10590 10588 10595 10596 10595 10599 10600 10601 10596 10592 10592 10591 10589 10587 10586 10585 10585 10584 10584 10584 10587 10593 10597 10601 10606